Location: Triton
(47.6048°N, 122.9899°W)
Time: 15:19:01
(UTC+00:00)

ARIANE 6 FM1 Upper Stage - Pass Details

Date: 21 February 2026
Orbit: 523 x 607 km, 62.0° (Epoch: 8 March)

Event Time Altitude Azimuth Distance (km) Brightness Sun altitude
Rises 03:15:02 0° 305° (NW) 2,658 7.1 -16.1°
Reaches altitude 10° 03:17:40 10° 288° (WNW) 1,767 6.4 -16.6°
Maximum altitude 03:20:31 19° 242° (WSW) 1,289 5.2 -17.0°
Drops below altitude 10° 03:23:22 10° 195° (SSW) 1,772 5.3 -17.5°
Sets 03:26:01 0° 178° (S) 2,669 6.1 -18.0°
